Location: Codford Saint Peter
(51.1597°N, 2.0531°W)
Time: 00:02:58
(UTC+00:00)

ELECTRON R/B - Pass Details

Date: 07 December 2021
Orbit: 484 x 495 km, 40.0° (Epoch: 23 January)

Event Time Altitude Azimuth Distance (km) Brightness Sun altitude
Exits shadow 05:37:29 13° 197° (SSW) 1,489 ? -20.8°
Maximum altitude 05:38:47 15° 174° (S) 1,388 ? -20.6°
Drops below altitude 10° 05:40:58 10° 138° (SE) 1,665 ? -20.3°
Sets 05:43:54 0° 115° (ESE) 2,549 ? -19.8°
